User: anonymous   Login
Location: Dalton
(34.7700°N, 84.9700°W)
Time: 23:12:20
(UTC-05:00)
Language:

UWE-3 - Orbit

View from above orbital plane
View from above orbital plane
View from above satellite
View from above satellite

Ground track
Ground track

The orbit data is extracted from the following two-line orbital elements,

1 39446U 13066AG  18054.50821744  .00000166  00000-0  28835-4 0  9994
2 39446  97.6036  82.4388 0070236 185.2899 174.7579 14.78148242228320
Epoch (UTC): 23 February 2018 12:11:49
Eccentricity: 0.0070236
inclination: 97.6036°
perigee height: 586 km
apogee height: 684 km
right ascension of ascending node: 82.4388°
argument of perigee: 185.2899°
revolutions per day: 14.78148242
mean anomaly at epoch: 174.7579°
orbit number at epoch: 22832

The dashed part of the orbit path shows where the satellite is in the earth's shadow,  

DLR